Regional Weather Roundup
Issued by NWS

Home | Current Version | Previous Version | Graphics & Text | Print | Product List | Glossary On
Versions: 1 2 3 4 5 6 7 8 9 10 11 12 13 14 15 16 17 18 19 20 21 22 23 24 25 26 27 28 29 30 31 32 33 34 35 36 37 38 39 40 41 42 43 44 45 46 47 48 49 50
000
ASUS43 KMPX 232110
RWRMN
WEATHER ROUNDUP FOR MINNESOTA
NATIONAL WEATHER SERVICE TWIN CITIES/CHANHASSEN MN
400 PM CDT FRI JUN 23 2017


NOTE: "FAIR" INDICATES FEW OR NO CLOUDS BELOW 12,000 FEET WITH NO
SIGNIFICANT WEATHER AND/OR OBSTRUCTIONS TO VISIBILITY. N/A MEANS
CURRENT SKY AND/OR WEATHER CONDITIONS ARE NOT AVAILABLE.

MNZ060>063-068>070-232200-
   Twin Cities Metro

CITY           SKY/WX    TMP DP  RH WIND       PRES   REMARKS
TWIN CITIES    PTSUNNY   72  50  45 NW15G28   29.80S
ST PAUL        CLOUDY    72  51  47 NW17G26   29.79F
CRYSTAL        PTSUNNY   69  49  48 W13G24    29.79S
BLAINE         PTSUNNY   72  50  46 NW20G26   29.80R
LAKEVILLE      CLOUDY    66  55  68 W9G18     29.82S
EDEN PRAIRIE   CLOUDY    72  52  49 NW21G29   29.81S
SOUTH ST PAUL  PTSUNNY   71  49  45 W15G22    29.79S
LAKE ELMO      PTSUNNY   70  52  52 NW10G18   29.80S
$$
MNZ001>005-007-008-013>017-022>024-027-028-232200-
   Northwest Minnesota

CITY           SKY/WX    TMP DP  RH WIND       PRES   REMARKS
BEMIDJI        CLOUDY    61  50  65 W22       29.85R
HALLOCK        CLOUDY    61  48  63 NW14G20   29.89S
ROSEAU           N/A     57  52  82 NW17G23   29.85R
WARROAD        CLOUDY    57  52  82 NW14G23   29.84R
THIEF RVR FALL CLOUDY    58  49  72 NW16G24   29.90R
CROOKSTON      CLOUDY    61  46  59 N14       29.90S
FOSSTON        PTSUNNY   61  50  67 NW10      29.89S
DETROIT LAKES  PTSUNNY   61  50  67 NW16G22   29.91S
MOORHEAD       CLOUDY    63  46  55 NW15G21   29.92S
PARK RAPIDS    CLOUDY    63  50  62 NW25      29.85R
MAHNOMEN       CLOUDY    60  49  66 NW17      29.89S
$$
MNZ006-009>011-018-025>026-232200-
   North Central Minnesota

CITY           SKY/WX    TMP DP  RH WIND       PRES   REMARKS
BAUDETTE       CLOUDY    59  55  87 NW16G23   29.80R
FLAG ISLAND    CLOUDY    57  52  82 W20G25    29.79R
INTL FALLS     CLOUDY    61  51  70 W17G28    29.74R
WASKISH        CLOUDY    61  54  77 NW15G21   29.81S
BIG FORK       MOSUNNY   64  52  63 NW10G21   29.78R
LONGVILLE      HVY RAIN  61  54  77 NW10      29.82R
GRAND RAPIDS   LGT RAIN  59  55  87 W16G22    29.80R
CRANE LAKE     PTSUNNY   64  48  55 N7G18     29.72S
ORR            MOSUNNY   68  46  45 NW12G17   29.70S
COOK           PTSUNNY   64  48  55 W13       29.74R
WALKER         MOCLDY    65  50  58 NW21G28   29.82S
$$
MNZ012-019>021-037-232200-
   Northeast Minnesota

CITY           SKY/WX    TMP DP  RH WIND       PRES   REMARKS
DULUTH         MOSUNNY   69  50  50 W15G23    29.72R
ELY            MOSUNNY   66  45  45 NW13G23   29.70R
HIBBING        MOSUNNY   63  50  62 NW18G26   29.74S
EVELETH        SUNNY     66  36  32 NW13G18   29.74R
DULUTH HARBOR  PTSUNNY   72  52  49 W21       29.71S
TWO HARBORS    SUNNY     72  54  53 NW8G17    29.68S
SILVER BAY     MOSUNNY   72  46  40 NW7G20    29.66S
GRAND MARAIS     N/A     73  52  47 VRB7G17   29.61S
G MARAIS ARPRT SUNNY     64  48  55 W8G18     29.66F
$$
MNZ029>031-032-039>041-046>048-054>057-064-232200-
   West Central Minnesota

CITY           SKY/WX    TMP DP  RH WIND       PRES   REMARKS
FERGUS FALLS   CLOUDY    63  50  63 NW18G28   29.89S
WHEATON        CLOUDY    64  46  52 NW16G23   29.95S
MORRIS         PTSUNNY   66  50  55 NW20G28   29.90F
ALEXANDRIA     CLOUDY    65  50  58 NW20G31   29.90S
ELBOW LAKE     CLOUDY    62  51  66 W23G31    29.92S
WADENA         MOSUNNY   63  52  67 NW22G30   29.87R
GLENWOOD       CLOUDY    64  52  63 NW22G28   29.90S
APPLETON       CLOUDY    66  46  48 NW16G23   29.92R
BENSON         PTSUNNY   70  48  46 N22       29.92R
ORTONVILLE     CLOUDY    64  48  55 NW16G23   29.93S
MADISON        PTSUNNY   66  52  59 NW20G28   29.94R
WILLMAR        FAIR      68  54  60 NW20G32   29.90S
$$
MNZ033>034-036-042>043-049>051-058-059-232200-
   Central Minnesota

CITY           SKY/WX    TMP DP  RH WIND       PRES   REMARKS
ST CLOUD       CLOUDY    67  52  58 NW23G31   29.82S
SAUK CENTRE    FAIR      65  51  60 NW17G28   29.87F
PAYNESVILLE    MOSUNNY   67  52  57 W20G26    29.87S
AITKIN         MOSUNNY   63  54  72 NW9       29.79R
PINE RIVER     CLOUDY    61  55  82 W8        29.85S
BRAINERD       PTSUNNY   65  54  67 NW12      29.82S
STAPLES        PTSUNNY   64  48  55 W18G24    29.85S
LONG PRAIRIE   LGT RAIN  59  54  82 W16       29.88S
LITTLE FALLS   PTSUNNY   66  50  55 W21G26    29.84S
LITCHFIELD     MOSUNNY   70  55  60 NW16G25   29.86S
BUFFALO        PTSUNNY   69  53  57 NW14G23   29.84S
MAPLE LAKE     MOSUNNY   71  56  59 W14       29.84F
HUTCHINSON     MOSUNNY   69  55  60 NW20G26   29.87S
$$
MNZ037-044-045-052-053-232200-
   East Central Minnesota

CITY           SKY/WX    TMP DP  RH WIND       PRES   REMARKS
PRINCETON      MOSUNNY   72  52  49 NW21G28   29.82S
MORA           SUNNY     64  52  63 NW18      29.82S
CAMBRIDGE      PTSUNNY   70  54  56 NW16G25   29.79F
RUSH CITY      CLOUDY    64  57  77 W7        29.80S
MOOSE LAKE     LGT RAIN  61  55  82 NW5       29.76R
HINCKLEY       FAIR      70  54  56 W10G22    29.78S
CLOQUET        PTSUNNY   68  48  49 W16G23    29.74S
MCGREGOR       CLOUDY    61  55  82 W7G17     29.79S
$$
MNZ071>073-080-081-089-090-097-098-232200-
   Southwest Minnesota

CITY           SKY/WX    TMP DP  RH WIND       PRES   REMARKS
MONTEVIDEO     CLOUDY    66  52  59 N17G25    29.92S
GRANITE FALLS  CLOUDY    68  53  57 W22G28    29.94R
CANBY          CLOUDY    65  50  58 W20G26    29.97R
MARSHALL       CLOUDY    65  51  60 NW21G30   29.93R
REDWOOD FALLS  CLOUDY    68  51  54 NW17G25   29.90R
OLIVIA         PTSUNNY   70  52  52 NW22G29   29.89R
PIPESTONE      PTSUNNY   64  48  55 NW18G29   29.98R
WINDOM         SUNNY     68  52  56 NW18G28   29.93R
WORTHINGTON    CLOUDY    65  51  60 NW17G24   29.96S
JACKSON        CLOUDY    66  50  55 NW20G26   29.94R
TRACY          CLOUDY    67  51  57 NW21G26   29.94S
SLAYTON        CLOUDY    64  49  58 NW23      29.97R
$$
MNZ065>067-074>077-082>085-091>093-232200-
   South Central Minnesota

CITY           SKY/WX    TMP DP  RH WIND       PRES   REMARKS
MANKATO        CLOUDY    66  54  65 NW16G24   29.87F
NEW ULM        PTSUNNY   66  52  59 NW16G23   29.88S
ST JAMES       PTSUNNY   66  54  63 W20G25    29.91S
FAIRMONT       PTSUNNY   67  53  61 NW20G26   29.91R
GLENCOE        MOSUNNY   70  58  65 W21       29.84F
FARIBAULT      PTSUNNY   66  55  68 W18G26    29.85R
OWATONNA       MOSUNNY   68  55  64 W18G28    29.85S
WASECA         CLOUDY    66  54  63 NW21G26   29.88S
ALBERT LEA     CLOUDY    66  54  63 NW12G21   29.87S
$$
MNZ078>079-086>088-094>096-232200-
   Southeast Minnesota

CITY           SKY/WX    TMP DP  RH WIND       PRES   REMARKS
ROCHESTER      CLOUDY    67  56  67 NW17      29.83S
RED WING       MOSUNNY   73  48  40 NW7G18    29.78S
STANTON        PTSUNNY   70  55  57 NW14G21   29.81S
DODGE CENTER   MOSUNNY   68  55  64 W22G28    29.84R
WINONA           N/A     70  54  56 NW13      29.79R
AUSTIN         PTSUNNY   66  55  68 W17G23    29.85S
PRESTON        CLOUDY    66  53  62 NW16G24   29.84R
$$
ABBREVIATIONS USED IN REMARKS
   TC - TEMPERATURES IN CELSIUS
  WCI - WIND CHILL INDEX
   HX - HEAT INDEX
  VSB - VISIBILITY
$$




USA.gov is the U.S. government's official web portal to all federal, state and local government web resources and services.